QPF
0.00 0.00 0.00 0.00 0.00 0.00 0.00 0.00 0.00 0.00 0.00 0.00 0.00 0.00 0.00 0.01 0.01 0.01 0.01 0.01 0.01 0.01 0.01 0.01 0.01 0.01 0.01 0.01 0.00 0.01 0.00 0.00 0.01 0.01 0.00 0.00 0.00 0.00 0.00 0.00 0.00 0.01 0.01 0.00 0.00 0.00 0.00 0.00 0.00
0.00 0.00 0.00 0.00 0.00 0.00 0.00 0.00 0.00 0.00 0.01 0.00 0.01 0.00 0.01 0.00 0.00 0.01 0.01 0.01 0.01 0.01 0.01 0.01 0.01 0.01 0.01 0.01 0.01 0.00 0.00 0.00 0.00 0.00 0.00 0.00 0.00 0.00 0.00 0.00 0.01 0.01 0.01 0.01 0.00 0.00 0.00 0.00 0.00
0.00 0.00 0.00 0.00 0.00 0.00 0.00 0.00 0.00 0.00 0.00 0.00 0.00 0.00 0.01 0.00 0.00 0.01 0.01 0.01 0.01 0.01 0.01 0.02 0.02 0.01 0.02 0.01 0.01 0.00 0.00 0.00 0.00 0.00 0.00 0.00 0.00 0.00 0.00 0.01 0.01 0.01 0.00 0.00 0.00 0.00 0.00 0.00 0.01
0.00 0.00 0.00 0.00 0.00 0.00 0.00 0.00 0.01 0.01 0.01 0.00 0.00 0.00 0.00 0.01 0.00 0.01 0.01 0.01 0.01 0.01 0.01 0.01 0.01 0.02 0.03 0.03 0.03 0.02 0.01 0.00 0.00 0.00 0.00 0.00 0.00 0.00 0.01 0.01 0.01 0.01 0.01 0.00 0.00 0.00 0.00 0.00 0.01
0.00 0.00 0.00 0.00 0.00 0.00 0.00 0.01 0.01 0.01 0.01 0.00 0.00 0.00 0.01 0.01 0.01 0.01 0.01 0.01 0.02 0.01 0.01 0.01 0.01 0.02 0.02 0.03 0.05 0.06 0.03 0.02 0.01 0.01 0.01 0.01 0.01 0.01 0.01 0.01 0.01 0.01 0.01 0.01 0.00 0.00 0.00 0.00 0.01
0.00 0.00 0.00 0.00 0.00 0.00 0.00 0.00 0.01 0.01 0.01 0.01 0.00 0.00 0.01 0.01 0.01 0.01 0.01 0.01 0.01 0.01 0.01 0.01 0.01 0.00 0.01 0.01 0.02 0.04 0.04 0.04 0.04 0.03 0.03 0.02 0.02 0.02 0.01 0.01 0.01 0.01 0.01 0.01 0.01 0.01 0.01 0.01 0.01
0.00 0.00 0.00 0.00 0.00 0.00 0.01 0.01 0.01 0.01 0.00 0.01 0.00 0.00 0.01 0.01 0.01 0.01 0.01 0.01 0.01 0.02 0.02 0.02 0.01 0.01 0.01 0.01 0.01 0.01 0.02 0.04 0.05 0.06 0.05 0.04 0.03 0.02 0.01 0.01 0.01 0.01 0.01 0.01 0.01 0.01 0.01 0.01 0.01
0.00 0.00 0.00 0.00 0.00 0.00 0.00 0.01 0.01 0.01 0.01 0.01 0.00 0.00 0.00 0.01 0.01 0.01 0.01 0.01 0.01 0.02 0.03 0.04 0.03 0.03 0.03 0.02 0.02 0.01 0.02 0.03 0.03 0.03 0.04 0.03 0.02 0.02 0.01 0.01 0.01 0.01 0.01 0.02 0.02 0.02 0.01 0.01 0.01
0.00 0.00 0.00 0.00 0.00 0.00 0.00 0.00 0.01 0.01 0.01 0.00 0.00 0.00 0.00 0.01 0.01 0.01 0.01 0.02 0.02 0.02 0.03 0.04 0.04 0.03 0.03 0.03 0.02 0.02 0.03 0.04 0.05 0.04 0.04 0.03 0.02 0.02 0.03 0.03 0.03 0.02 0.03 0.03 0.02 0.02 0.02 0.01 0.01
0.00 0.00 0.00 0.00 0.00 0.00 0.00 0.00 0.00 0.01 0.01 0.00 0.00 0.01 0.02 0.02 0.02 0.02 0.02 0.02 0.02 0.02 0.02 0.03 0.03 0.03 0.03 0.03 0.03 0.04 0.05 0.05 0.06 0.07 0.07 0.06 0.06 0.06 0.04 0.04 0.04 0.05 0.05 0.04 0.03 0.02 0.02 0.01 0.01
0.00 0.00 0.00 0.00 0.00 0.00 0.00 0.00 0.01 0.00 0.01 0.00 0.00 0.01 0.02 0.04 0.05 0.04 0.02 0.02 0.03 0.05 0.04 0.04 0.04 0.03 0.04 0.03 0.03 0.04 0.04 0.05 0.05 0.05 0.06 0.06 0.08 0.10 0.07 0.06 0.06 0.07 0.07 0.07 0.06 0.04 0.03 0.02 0.02
0.00 0.00 0.00 0.00 0.00 0.00 0.00 0.01 0.01 0.01 0.01 0.01 0.01 0.01 0.02 0.05 0.04 0.05 0.03 0.03 0.05 0.05 0.05 0.06 0.07 0.08 0.06 0.06 0.06 0.06 0.06 0.05 0.06 0.05 0.05 0.05 0.07 0.09 0.09 0.08 0.09 0.10 0.12 0.12 0.11 0.10 0.07 0.05 0.05
0.00 0.00 0.00 0.00 0.00 0.00 0.00 0.01 0.02 0.02 0.02 0.01 0.01 0.01 0.05 0.10 0.07 0.04 0.04 0.04 0.04 0.04 0.05 0.06 0.07 0.09 0.11 0.10 0.09 0.13 0.21 0.15 0.09 0.07 0.06 0.06 0.07 0.09 0.11 0.12 0.13 0.14 0.14 0.13 0.12 0.12 0.10 0.08 0.07
0.00 0.00 0.00 0.00 0.00 0.00 0.01 0.01 0.02 0.02 0.02 0.02 0.02 0.02 0.04 0.06 0.07 0.07 0.08 0.07 0.06 0.06 0.05 0.05 0.05 0.05 0.07 0.09 0.09 0.09 0.16 0.19 0.13 0.07 0.06 0.07 0.07 0.08 0.10 0.11 0.13 0.15 0.14 0.14 0.13 0.12 0.12 0.10 0.08
0.00 0.00 0.00 0.00 0.01 0.01 0.01 0.01 0.01 0.01 0.02 0.02 0.02 0.03 0.04 0.06 0.08 0.09 0.10 0.10 0.10 0.10 0.07 0.06 0.06 0.07 0.07 0.06 0.07 0.05 0.05 0.03 0.05 0.05 0.05 0.06 0.07 0.07 0.08 0.10 0.11 0.12 0.11 0.10 0.12 0.11 0.10 0.08 0.08
0.00 0.00 0.01 0.01 0.00 0.00 0.01 0.01 0.01 0.02 0.03 0.02 0.02 0.03 0.04 0.04 0.05 0.07 0.06 0.06 0.05 0.05 0.05 0.06 0.06 0.07 0.12 0.12 0.06 0.04 0.03 0.03 0.03 0.04 0.05 0.05 0.06 0.06 0.07 0.08 0.09 0.11 0.10 0.08 0.11 0.11 0.09 0.09 0.09
0.00 0.00 0.00 0.01 0.01 0.00 0.01 0.02 0.02 0.02 0.03 0.03 0.02 0.02 0.02 0.02 0.03 0.06 0.05 0.05 0.05 0.06 0.07 0.08 0.07 0.05 0.07 0.11 0.08 0.04 0.04 0.03 0.03 0.03 0.04 0.05 0.06 0.06 0.07 0.07 0.09 0.10 0.10 0.10 0.09 0.09 0.11 0.11 0.11
0.00 0.00 0.00 0.00 0.00 0.00 0.01 0.01 0.02 0.02 0.02 0.02 0.02 0.01 0.01 0.02 0.03 0.05 0.06 0.06 0.06 0.06 0.09 0.09 0.07 0.06 0.06 0.07 0.07 0.05 0.04 0.03 0.03 0.04 0.04 0.05 0.07 0.09 0.09 0.08 0.09 0.11 0.11 0.11 0.12 0.11 0.12 0.12 0.12
0.00 0.00 0.00 0.00 0.00 0.00 0.01 0.01 0.01 0.02 0.02 0.02 0.02 0.02 0.03 0.04 0.04 0.06 0.07 0.07 0.06 0.05 0.07 0.07 0.07 0.08 0.08 0.07 0.06 0.05 0.04 0.03 0.04 0.04 0.04 0.05 0.05 0.07 0.10 0.11 0.11 0.11 0.13 0.13 0.13 0.12 0.12 0.12 0.12
0.00 0.00 0.00 0.00 0.00 0.00 0.00 0.00 0.00 0.01 0.02 0.02 0.02 0.02 0.03 0.04 0.06 0.07 0.08 0.08 0.07 0.06 0.07 0.08 0.10 0.11 0.09 0.08 0.07 0.06 0.05 0.04 0.04 0.05 0.04 0.03 0.04 0.06 0.06 0.08 0.11 0.10 0.12 0.13 0.14 0.14 0.14 0.13 0.14
0.00 0.00 0.00 0.00 0.00 0.00 0.00 0.00 0.00 0.00 0.01 0.02 0.02 0.02 0.02 0.02 0.04 0.08 0.09 0.09 0.08 0.07 0.07 0.09 0.10 0.11 0.10 0.09 0.08 0.08 0.06 0.05 0.04 0.04 0.04 0.04 0.03 0.03 0.04 0.05 0.06 0.08 0.11 0.13 0.14 0.16 0.16 0.14 0.13
0.00 0.00 0.00 0.00 0.00 0.00 0.00 0.01 0.00 0.00 0.01 0.01 0.02 0.02 0.02 0.02 0.04 0.06 0.07 0.09 0.09 0.08 0.09 0.11 0.13 0.13 0.12 0.09 0.07 0.06 0.05 0.05 0.05 0.04 0.04 0.04 0.03 0.03 0.02 0.02 0.03 0.04 0.06 0.10 0.11 0.11 0.11 0.12 0.13
0.00 0.00 0.00 0.00 0.00 0.00 0.00 0.01 0.00 0.00 0.00 0.01 0.02 0.03 0.03 0.03 0.04 0.05 0.06 0.06 0.10 0.11 0.10 0.10 0.13 0.15 0.14 0.11 0.08 0.06 0.05 0.05 0.04 0.04 0.03 0.03 0.02 0.01 0.01 0.02 0.02 0.02 0.03 0.04 0.06 0.07 0.07 0.07 0.09
0.00 0.00 0.00 0.00 0.00 0.00 0.00 0.01 0.01 0.00 0.00 0.00 0.01 0.02 0.03 0.03 0.03 0.04 0.05 0.05 0.09 0.09 0.10 0.08 0.09 0.09 0.08 0.07 0.07 0.06 0.06 0.05 0.03 0.03 0.02 0.02 0.01 0.01 0.01 0.01 0.01 0.02 0.03 0.04 0.05 0.04 0.05 0.06 0.07
0.00 0.00 0.00 0.00 0.01 0.00 0.00 0.01 0.01 0.00 0.00 0.01 0.03 0.07 0.05 0.02 0.02 0.03 0.05 0.07 0.09 0.08 0.07 0.07 0.08 0.06 0.04 0.03 0.04 0.03 0.04 0.04 0.03 0.03 0.03 0.03 0.03 0.02 0.02 0.03 0.03 0.03 0.03 0.04 0.03 0.03 0.02 0.03 0.03
0.00 0.00 0.01 0.01 0.01 0.00 0.01 0.01 0.01 0.01 0.02 0.02 0.04 0.07 0.06 0.04 0.04 0.06 0.08 0.09 0.10 0.10 0.08 0.08 0.08 0.06 0.04 0.04 0.03 0.04 0.04 0.07 0.07 0.06 0.05 0.05 0.04 0.03 0.02 0.02 0.03 0.04 0.05 0.04 0.03 0.03 0.02 0.02 0.02
0.00 0.00 0.00 0.00 0.00 0.01 0.01 0.01 0.01 0.01 0.04 0.04 0.04 0.05 0.05 0.04 0.05 0.06 0.08 0.11 0.14 0.14 0.13 0.11 0.09 0.07 0.04 0.03 0.03 0.02 0.03 0.04 0.06 0.08 0.08 0.05 0.04 0.03 0.02 0.02 0.02 0.03 0.04 0.03 0.03 0.03 0.02 0.02 0.02
0.00 0.00 0.00 0.01 0.02 0.02 0.02 0.02 0.03 0.04 0.04 0.03 0.05 0.05 0.06 0.07 0.09 0.09 0.08 0.10 0.13 0.15 0.12 0.10 0.09 0.08 0.05 0.03 0.02 0.02 0.03 0.04 0.04 0.05 0.05 0.05 0.04 0.03 0.02 0.02 0.02 0.02 0.02 0.02 0.03 0.03 0.02 0.02 0.03
0.01 0.01 0.01 0.01 0.01 0.03 0.04 0.04 0.03 0.04 0.03 0.03 0.03 0.05 0.06 0.06 0.07 0.06 0.07 0.08 0.13 0.12 0.09 0.08 0.08 0.07 0.06 0.05 0.04 0.03 0.03 0.04 0.04 0.04 0.03 0.04 0.04 0.03 0.02 0.02 0.02 0.02 0.02 0.02 0.02 0.03 0.02 0.02 0.02
0.00 0.00 0.01 0.02 0.02 0.02 0.03 0.05 0.04 0.02 0.02 0.02 0.03 0.04 0.05 0.06 0.06 0.06 0.05 0.05 0.06 0.05 0.05 0.04 0.05 0.05 0.05 0.05 0.05 0.05 0.05 0.04 0.04 0.05 0.05 0.04 0.04 0.03 0.02 0.02 0.02 0.01 0.01 0.02 0.02 0.01 0.01 0.01 0.01
MSLP
1012.52 1012.84 1013.19 1013.44 1013.52 1013.38 1013.04 1012.54 1012.01 1011.54 1011.22 1011.10 1011.16 1011.33 1011.54 1011.68 1011.72 1011.63 1011.49 1011.36 1011.34 1011.50 1011.86 1012.41 1013.07 1013.72 1014.28 1014.67 1014.88 1014.94 1014.93 1014.95 1015.08 1015.37 1015.81 1016.34 1016.88 1017.34 1017.65 1017.78 1017.74 1017.60 1017.44 1017.35 1017.36 1017.51 1017.76 1018.06 1018.36
1012.37 1012.78 1013.18 1013.46 1013.54 1013.37 1012.99 1012.46 1011.88 1011.38 1011.05 1010.90 1010.94 1011.10 1011.28 1011.42 1011.45 1011.38 1011.26 1011.17 1011.20 1011.41 1011.83 1012.43 1013.13 1013.82 1014.40 1014.82 1015.05 1015.14 1015.16 1015.21 1015.36 1015.66 1016.08 1016.58 1017.07 1017.46 1017.71 1017.77 1017.69 1017.54 1017.40 1017.35 1017.43 1017.64 1017.95 1018.30 1018.60
1012.30 1012.75 1013.16 1013.42 1013.47 1013.26 1012.84 1012.28 1011.69 1011.19 1010.85 1010.72 1010.76 1010.92 1011.10 1011.24 1011.27 1011.20 1011.09 1011.03 1011.09 1011.34 1011.80 1012.43 1013.17 1013.90 1014.52 1014.98 1015.26 1015.40 1015.46 1015.54 1015.70 1015.98 1016.37 1016.80 1017.22 1017.53 1017.71 1017.73 1017.64 1017.51 1017.42 1017.43 1017.59 1017.86 1018.22 1018.57 1018.86
1012.32 1012.76 1013.14 1013.34 1013.32 1013.05 1012.58 1012.00 1011.42 1010.94 1010.64 1010.54 1010.62 1010.80 1010.99 1011.13 1011.16 1011.10 1011.01 1010.96 1011.04 1011.31 1011.80 1012.47 1013.23 1014.00 1014.66 1015.17 1015.50 1015.69 1015.79 1015.89 1016.05 1016.30 1016.63 1016.99 1017.32 1017.57 1017.69 1017.70 1017.63 1017.55 1017.53 1017.62 1017.84 1018.16 1018.53 1018.87 1019.11
1012.43 1012.82 1013.11 1013.22 1013.10 1012.76 1012.25 1011.66 1011.10 1010.67 1010.42 1010.39 1010.51 1010.73 1010.96 1011.11 1011.16 1011.12 1011.04 1011.00 1011.10 1011.39 1011.89 1012.57 1013.35 1014.13 1014.82 1015.36 1015.73 1015.96 1016.09 1016.20 1016.35 1016.55 1016.82 1017.11 1017.38 1017.57 1017.67 1017.69 1017.66 1017.66 1017.71 1017.88 1018.15 1018.48 1018.84 1019.13 1019.30
1012.58 1012.89 1013.07 1013.08 1012.86 1012.45 1011.91 1011.33 1010.80 1010.43 1010.26 1010.29 1010.49 1010.76 1011.02 1011.21 1011.29 1011.27 1011.21 1011.19 1011.30 1011.59 1012.08 1012.75 1013.51 1014.28 1014.96 1015.51 1015.90 1016.14 1016.29 1016.40 1016.53 1016.70 1016.92 1017.15 1017.37 1017.54 1017.64 1017.69 1017.72 1017.79 1017.92 1018.13 1018.43 1018.76 1019.07 1019.29 1019.38
1012.74 1012.95 1013.03 1012.93 1012.63 1012.17 1011.62 1011.06 1010.59 1010.29 1010.20 1010.31 1010.57 1010.90 1011.21 1011.44 1011.55 1011.56 1011.52 1011.52 1011.64 1011.91 1012.37 1012.98 1013.69 1014.41 1015.06 1015.58 1015.95 1016.19 1016.34 1016.45 1016.57 1016.72 1016.90 1017.10 1017.29 1017.46 1017.58 1017.67 1017.76 1017.89 1018.07 1018.31 1018.60 1018.89 1019.14 1019.28 1019.29
1012.85 1012.98 1012.97 1012.79 1012.44 1011.96 1011.42 1010.91 1010.51 1010.29 1010.28 1010.46 1010.78 1011.16 1011.51 1011.77 1011.91 1011.96 1011.95 1011.96 1012.06 1012.31 1012.71 1013.25 1013.87 1014.50 1015.07 1015.53 1015.87 1016.09 1016.23 1016.34 1016.45 1016.60 1016.77 1016.96 1017.15 1017.32 1017.47 1017.60 1017.73 1017.89 1018.10 1018.34 1018.60 1018.84 1019.02 1019.09 1019.04
1012.90 1012.96 1012.88 1012.66 1012.29 1011.83 1011.34 1010.90 1010.58 1010.44 1010.50 1010.74 1011.10 1011.51 1011.88 1012.17 1012.35 1012.42 1012.43 1012.45 1012.54 1012.74 1013.06 1013.50 1014.01 1014.53 1014.99 1015.37 1015.65 1015.85 1015.98 1016.09 1016.22 1016.37 1016.56 1016.76 1016.96 1017.14 1017.30 1017.46 1017.61 1017.78 1017.99 1018.21 1018.43 1018.61 1018.72 1018.73 1018.64
1012.87 1012.89 1012.79 1012.55 1012.20 1011.79 1011.37 1011.01 1010.77 1010.71 1010.83 1011.10 1011.48 1011.90 1012.28 1012.58 1012.78 1012.87 1012.90 1012.92 1012.99 1013.14 1013.39 1013.72 1014.11 1014.50 1014.85 1015.14 1015.36 1015.52 1015.65 1015.78 1015.93 1016.11 1016.32 1016.53 1016.75 1016.94 1017.11 1017.26 1017.41 1017.57 1017.74 1017.93 1018.10 1018.24 1018.30 1018.29 1018.19
1012.80 1012.80 1012.68 1012.46 1012.16 1011.81 1011.47 1011.20 1011.04 1011.04 1011.20 1011.49 1011.87 1012.28 1012.65 1012.95 1013.15 1013.26 1013.31 1013.34 1013.39 1013.50 1013.67 1013.91 1014.18 1014.45 1014.69 1014.90 1015.06 1015.20 1015.33 1015.48 1015.66 1015.87 1016.11 1016.34 1016.56 1016.75 1016.90 1017.03 1017.16 1017.28 1017.42 1017.56 1017.70 1017.80 1017.86 1017.84 1017.77
1012.72 1012.69 1012.58 1012.39 1012.14 1011.87 1011.61 1011.42 1011.34 1011.39 1011.56 1011.85 1012.21 1012.59 1012.94 1013.22 1013.42 1013.54 1013.61 1013.65 1013.70 1013.78 1013.91 1014.07 1014.25 1014.43 1014.59 1014.73 1014.85 1014.97 1015.11 1015.28 1015.49 1015.72 1015.97 1016.22 1016.43 1016.60 1016.73 1016.82 1016.90 1016.98 1017.07 1017.18 1017.30 1017.40 1017.47 1017.49 1017.47
1012.65 1012.61 1012.51 1012.35 1012.15 1011.94 1011.76 1011.64 1011.61 1011.69 1011.88 1012.15 1012.48 1012.82 1013.13 1013.39 1013.58 1013.71 1013.80 1013.86 1013.92 1014.00 1014.11 1014.23 1014.36 1014.48 1014.59 1014.69 1014.79 1014.90 1015.04 1015.23 1015.45 1015.70 1015.96 1016.19 1016.38 1016.52 1016.61 1016.65 1016.68 1016.71 1016.77 1016.86 1016.97 1017.09 1017.20 1017.28 1017.33
1012.63 1012.57 1012.46 1012.32 1012.17 1012.02 1011.90 1011.83 1011.85 1011.95 1012.14 1012.39 1012.67 1012.97 1013.24 1013.48 1013.66 1013.79 1013.89 1013.97 1014.06 1014.16 1014.27 1014.40 1014.52 1014.63 1014.72 1014.81 1014.90 1015.01 1015.15 1015.33 1015.56 1015.80 1016.04 1016.25 1016.41 1016.50 1016.54 1016.53 1016.51 1016.50 1016.53 1016.61 1016.73 1016.89 1017.06 1017.22 1017.35
1012.65 1012.57 1012.45 1012.33 1012.20 1012.09 1012.02 1012.00 1012.05 1012.17 1012.36 1012.59 1012.84 1013.10 1013.33 1013.53 1013.68 1013.81 1013.91 1014.02 1014.13 1014.27 1014.41 1014.56 1014.70 1014.83 1014.94 1015.03 1015.13 1015.24 1015.38 1015.55 1015.75 1015.97 1016.18 1016.34 1016.46 1016.50 1016.49 1016.44 1016.37 1016.33 1016.34 1016.42 1016.57 1016.77 1017.01 1017.25 1017.47
1012.70 1012.59 1012.47 1012.35 1012.24 1012.17 1012.14 1012.16 1012.25 1012.39 1012.59 1012.80 1013.03 1013.25 1013.44 1013.59 1013.71 1013.81 1013.90 1014.01 1014.14 1014.30 1014.49 1014.68 1014.86 1015.03 1015.18 1015.30 1015.41 1015.52 1015.65 1015.80 1015.96 1016.14 1016.30 1016.42 1016.48 1016.48 1016.43 1016.33 1016.24 1016.17 1016.17 1016.24 1016.41 1016.66 1016.96 1017.29 1017.60
1012.75 1012.63 1012.50 1012.39 1012.31 1012.27 1012.28 1012.35 1012.48 1012.65 1012.86 1013.08 1013.28 1013.46 1013.60 1013.70 1013.76 1013.81 1013.87 1013.95 1014.08 1014.25 1014.47 1014.70 1014.94 1015.16 1015.35 1015.50 1015.63 1015.75 1015.86 1015.98 1016.11 1016.23 1016.34 1016.41 1016.43 1016.39 1016.30 1016.18 1016.06 1015.97 1015.95 1016.03 1016.21 1016.49 1016.84 1017.24 1017.64
1012.76 1012.64 1012.52 1012.43 1012.38 1012.38 1012.45 1012.57 1012.75 1012.97 1013.20 1013.43 1013.62 1013.76 1013.84 1013.87 1013.86 1013.83 1013.81 1013.85 1013.94 1014.10 1014.32 1014.58 1014.86 1015.13 1015.37 1015.57 1015.73 1015.85 1015.95 1016.04 1016.12 1016.20 1016.26 1016.29 1016.27 1016.20 1016.09 1015.94 1015.80 1015.70 1015.67 1015.74 1015.92 1016.21 1016.60 1017.05 1017.53
1012.72 1012.61 1012.51 1012.46 1012.46 1012.53 1012.65 1012.84 1013.08 1013.35 1013.61 1013.85 1014.03 1014.14 1014.15 1014.10 1013.99 1013.86 1013.75 1013.69 1013.72 1013.84 1014.05 1014.32 1014.63 1014.94 1015.22 1015.46 1015.65 1015.79 1015.88 1015.95 1016.00 1016.04 1016.06 1016.05 1016.01 1015.92 1015.79 1015.63 1015.48 1015.36 1015.32 1015.37 1015.53 1015.83 1016.23 1016.72 1017.24
1012.60 1012.52 1012.48 1012.48 1012.55 1012.69 1012.89 1013.15 1013.46 1013.78 1014.08 1014.33 1014.50 1014.56 1014.52 1014.37 1014.15 1013.91 1013.68 1013.52 1013.46 1013.52 1013.69 1013.95 1014.27 1014.61 1014.93 1015.21 1015.43 1015.59 1015.69 1015.75 1015.78 1015.79 1015.78 1015.75 1015.68 1015.58 1015.44 1015.28 1015.12 1014.99 1014.92 1014.95 1015.10 1015.37 1015.77 1016.27 1016.82
1012.42 1012.39 1012.41 1012.49 1012.64 1012.86 1013.15 1013.49 1013.87 1014.24 1014.58 1014.84 1015.00 1015.02 1014.91 1014.68 1014.36 1014.00 1013.66 1013.39 1013.23 1013.21 1013.33 1013.56 1013.89 1014.24 1014.60 1014.91 1015.16 1015.35 1015.46 1015.52 1015.54 1015.53 1015.50 1015.44 1015.36 1015.24 1015.10 1014.93 1014.77 1014.63 1014.54 1014.55 1014.67 1014.93 1015.30 1015.79 1016.35
1012.22 1012.25 1012.34 1012.50 1012.74 1013.05 1013.43 1013.86 1014.30 1014.73 1015.10 1015.37 1015.51 1015.50 1015.34 1015.03 1014.63 1014.17 1013.74 1013.37 1013.13 1013.04 1013.10 1013.30 1013.61 1013.98 1014.35 1014.69 1014.97 1015.18 1015.31 1015.37 1015.38 1015.35 1015.30 1015.21 1015.11 1014.98 1014.82 1014.65 1014.48 1014.34 1014.25 1014.25 1014.35 1014.58 1014.93 1015.39 1015.93
1012.02 1012.10 1012.27 1012.52 1012.86 1013.27 1013.74 1014.24 1014.75 1015.23 1015.63 1015.91 1016.05 1016.02 1015.81 1015.46 1015.00 1014.49 1013.99 1013.56 1013.26 1013.11 1013.13 1013.29 1013.58 1013.94 1014.32 1014.67 1014.97 1015.19 1015.33 1015.39 1015.38 1015.33 1015.24 1015.12 1014.99 1014.83 1014.65 1014.48 1014.31 1014.17 1014.09 1014.09 1014.19 1014.40 1014.72 1015.15 1015.64
1011.87 1012.00 1012.24 1012.57 1013.00 1013.50 1014.06 1014.65 1015.23 1015.75 1016.18 1016.48 1016.61 1016.58 1016.36 1016.00 1015.52 1014.99 1014.47 1014.01 1013.68 1013.50 1013.49 1013.63 1013.89 1014.23 1014.60 1014.94 1015.23 1015.45 1015.58 1015.62 1015.58 1015.49 1015.36 1015.19 1015.01 1014.82 1014.62 1014.43 1014.27 1014.14 1014.08 1014.10 1014.21 1014.42 1014.72 1015.10 1015.53
1011.79 1011.96 1012.25 1012.66 1013.17 1013.77 1014.42 1015.08 1015.72 1016.29 1016.75 1017.07 1017.22 1017.20 1017.00 1016.65 1016.20 1015.69 1015.19 1014.76 1014.43 1014.25 1014.22 1014.33 1014.56 1014.86 1015.20 1015.51 1015.77 1015.96 1016.05 1016.06 1015.98 1015.84 1015.64 1015.42 1015.18 1014.94 1014.71 1014.51 1014.35 1014.25 1014.22 1014.27 1014.40 1014.62 1014.91 1015.25 1015.61
1011.81 1011.99 1012.32 1012.79 1013.38 1014.05 1014.78 1015.52 1016.21 1016.83 1017.33 1017.68 1017.86 1017.87 1017.72 1017.42 1017.03 1016.58 1016.14 1015.75 1015.46 1015.29 1015.25 1015.34 1015.53 1015.78 1016.06 1016.32 1016.53 1016.66 1016.70 1016.65 1016.51 1016.31 1016.05 1015.76 1015.46 1015.17 1014.90 1014.69 1014.54 1014.46 1014.47 1014.56 1014.73 1014.97 1015.25 1015.55 1015.85
1011.91 1012.09 1012.44 1012.95 1013.60 1014.34 1015.14 1015.94 1016.70 1017.36 1017.90 1018.28 1018.51 1018.57 1018.47 1018.25 1017.94 1017.59 1017.23 1016.91 1016.67 1016.53 1016.49 1016.54 1016.68 1016.87 1017.07 1017.25 1017.38 1017.44 1017.42 1017.30 1017.11 1016.84 1016.52 1016.17 1015.81 1015.48 1015.18 1014.96 1014.81 1014.76 1014.81 1014.94 1015.14 1015.39 1015.67 1015.93 1016.17
1012.09 1012.25 1012.60 1013.13 1013.82 1014.61 1015.46 1016.31 1017.12 1017.83 1018.41 1018.84 1019.11 1019.22 1019.20 1019.07 1018.85 1018.60 1018.33 1018.10 1017.92 1017.80 1017.76 1017.78 1017.86 1017.97 1018.07 1018.16 1018.21 1018.19 1018.09 1017.92 1017.67 1017.35 1016.99 1016.60 1016.21 1015.85 1015.54 1015.30 1015.17 1015.13 1015.20 1015.35 1015.58 1015.84 1016.10 1016.33 1016.51
1012.33 1012.45 1012.79 1013.32 1014.02 1014.83 1015.72 1016.60 1017.44 1018.18 1018.80 1019.27 1019.59 1019.77 1019.82 1019.78 1019.66 1019.50 1019.33 1019.17 1019.04 1018.95 1018.90 1018.89 1018.90 1018.92 1018.93 1018.93 1018.88 1018.79 1018.64 1018.42 1018.14 1017.81 1017.43 1017.04 1016.64 1016.27 1015.96 1015.72 1015.59 1015.55 1015.62 1015.78 1016.00 1016.25 1016.49 1016.69 1016.81
1012.61 1012.69 1012.99 1013.50 1014.19 1015.00 1015.89 1016.79 1017.64 1018.40 1019.05 1019.55 1019.92 1020.15 1020.27 1020.31 1020.28 1020.21 1020.12 1020.03 1019.94 1019.87 1019.80 1019.74 1019.69 1019.63 1019.56 1019.47 1019.35 1019.19 1019.00 1018.77 1018.49 1018.17 1017.82 1017.45 1017.08 1016.74 1016.44 1016.21 1016.07 1016.03 1016.08 1016.21 1016.40 1016.61 1016.80 1016.95 1017.03
Thickness
5799 5806 5811 5809 5801 5798 5798 5807 5814 5813 5817 5823 5823 5818 5813 5806 5798 5787 5801 5809 5806 5801 5792 5784 5781 5778 5777 5776 5774 5772 5769 5766 5764 5762 5760 5758 5755 5753 5752 5751 5750 5749 5748 5747 5745 5744 5743 5742 5741
5803 5807 5806 5804 5795 5789 5795 5808 5809 5813 5818 5822 5819 5814 5809 5802 5802 5799 5802 5803 5801 5796 5789 5784 5777 5775 5773 5772 5770 5768 5765 5763 5760 5758 5756 5754 5752 5750 5749 5748 5747 5746 5745 5744 5743 5741 5740 5739 5738
5802 5805 5802 5799 5793 5795 5798 5807 5810 5815 5819 5817 5812 5811 5805 5796 5797 5798 5801 5801 5798 5792 5787 5779 5774 5771 5769 5767 5765 5763 5761 5759 5757 5755 5752 5751 5749 5747 5746 5744 5743 5742 5742 5741 5739 5738 5737 5736 5735
5800 5799 5799 5794 5789 5798 5803 5806 5810 5809 5811 5815 5811 5801 5800 5800 5801 5802 5800 5798 5795 5790 5784 5775 5770 5767 5765 5763 5761 5759 5757 5755 5753 5751 5749 5747 5746 5744 5743 5741 5740 5739 5738 5737 5736 5735 5734 5733 5733
5799 5796 5788 5785 5788 5797 5803 5807 5809 5807 5806 5807 5808 5796 5788 5795 5803 5800 5797 5795 5790 5787 5781 5772 5766 5763 5761 5759 5757 5755 5753 5751 5749 5747 5746 5744 5742 5741 5740 5738 5737 5736 5735 5734 5733 5732 5731 5730 5730
5791 5792 5782 5780 5784 5793 5801 5807 5807 5806 5805 5805 5803 5793 5782 5790 5793 5793 5793 5790 5788 5783 5777 5767 5761 5759 5757 5755 5753 5751 5749 5747 5745 5744 5742 5740 5739 5738 5737 5735 5734 5733 5732 5731 5730 5729 5728 5728 5727
5786 5786 5783 5785 5782 5786 5794 5805 5804 5802 5800 5801 5805 5790 5780 5782 5787 5789 5788 5786 5782 5778 5773 5765 5760 5756 5753 5751 5749 5747 5745 5743 5741 5740 5738 5736 5735 5734 5733 5732 5731 5730 5729 5728 5727 5726 5725 5725 5724
5790 5787 5779 5782 5781 5783 5795 5800 5803 5801 5797 5803 5804 5789 5779 5779 5784 5784 5781 5779 5776 5773 5769 5764 5760 5756 5753 5749 5745 5743 5741 5740 5738 5736 5734 5732 5731 5731 5729 5729 5727 5727 5726 5725 5724 5723 5722 5722 5721
5786 5778 5774 5778 5781 5785 5794 5793 5796 5802 5797 5795 5797 5795 5791 5783 5780 5776 5772 5769 5767 5765 5764 5761 5758 5755 5753 5750 5744 5740 5738 5736 5734 5733 5731 5730 5732 5731 5728 5728 5724 5723 5722 5722 5722 5721 5719 5719 5719
5779 5772 5772 5781 5788 5788 5791 5792 5792 5791 5786 5784 5783 5784 5783 5777 5774 5769 5765 5761 5759 5758 5758 5758 5756 5753 5751 5748 5743 5740 5738 5735 5734 5734 5731 5730 5730 5729 5728 5724 5721 5720 5719 5719 5719 5718 5717 5717 5722
5774 5770 5773 5779 5786 5788 5787 5788 5792 5788 5780 5783 5778 5775 5774 5771 5769 5766 5764 5761 5758 5755 5753 5753 5751 5748 5747 5744 5741 5739 5737 5733 5731 5730 5728 5727 5726 5725 5724 5722 5720 5718 5717 5718 5718 5717 5719 5721 5722
5768 5767 5772 5776 5781 5784 5784 5785 5782 5782 5781 5785 5783 5777 5771 5766 5764 5762 5759 5756 5754 5751 5748 5747 5745 5742 5740 5739 5737 5734 5732 5730 5728 5725 5724 5723 5722 5721 5721 5719 5718 5717 5716 5715 5715 5715 5717 5717 5716
5762 5762 5768 5774 5778 5781 5780 5777 5775 5773 5777 5779 5776 5770 5766 5762 5760 5758 5756 5752 5749 5745 5743 5742 5739 5736 5734 5732 5730 5730 5727 5726 5724 5721 5719 5718 5718 5718 5717 5715 5713 5713 5712 5711 5711 5711 5711 5710 5711
5761 5762 5764 5769 5772 5773 5771 5770 5770 5766 5772 5769 5765 5762 5761 5757 5755 5752 5749 5745 5743 5740 5738 5737 5734 5731 5729 5727 5724 5723 5722 5719 5719 5717 5715 5713 5713 5713 5712 5711 5709 5709 5708 5708 5707 5707 5706 5706 5707
5761 5756 5758 5762 5766 5768 5769 5758 5760 5763 5766 5761 5758 5756 5754 5753 5750 5746 5743 5740 5738 5735 5733 5731 5728 5726 5724 5722 5720 5718 5716 5715 5714 5712 5709 5708 5708 5707 5706 5706 5705 5705 5704 5703 5703 5702 5702 5702 5703
5756 5751 5747 5754 5761 5763 5760 5749 5754 5760 5757 5754 5753 5750 5747 5746 5744 5741 5738 5735 5734 5731 5727 5725 5724 5722 5719 5717 5714 5713 5711 5709 5708 5706 5705 5703 5702 5701 5701 5701 5701 5699 5699 5700 5699 5699 5698 5697 5697
5747 5744 5744 5747 5757 5759 5756 5749 5751 5755 5752 5748 5746 5744 5741 5739 5737 5735 5733 5730 5728 5725 5722 5719 5718 5716 5714 5711 5708 5707 5705 5703 5702 5700 5699 5697 5697 5696 5695 5696 5695 5694 5694 5694 5694 5694 5692 5691 5690
5740 5745 5742 5744 5751 5752 5749 5747 5747 5748 5746 5743 5741 5739 5735 5732 5729 5728 5726 5724 5722 5719 5716 5713 5711 5709 5707 5705 5703 5701 5700 5698 5696 5695 5692 5691 5691 5690 5689 5690 5688 5688 5688 5687 5686 5685 5685 5684 5685
5746 5742 5739 5742 5747 5745 5743 5741 5741 5742 5740 5738 5735 5733 5729 5726 5725 5722 5719 5717 5714 5711 5710 5707 5705 5703 5701 5699 5697 5695 5693 5691 5690 5689 5686 5685 5684 5684 5682 5683 5681 5680 5681 5680 5680 5680 5679 5679 5680
5739 5736 5736 5737 5740 5738 5736 5734 5738 5737 5736 5735 5731 5729 5725 5721 5717 5713 5711 5709 5707 5705 5703 5701 5698 5696 5695 5692 5690 5688 5686 5685 5683 5682 5679 5678 5677 5676 5677 5674 5675 5674 5673 5672 5673 5672 5671 5673 5673
5734 5735 5736 5733 5733 5734 5729 5724 5729 5731 5732 5730 5728 5726 5723 5717 5711 5707 5704 5703 5701 5699 5698 5696 5693 5690 5687 5685 5684 5682 5679 5678 5676 5674 5673 5670 5669 5668 5667 5667 5666 5665 5665 5665 5664 5664 5664 5665 5667
5729 5739 5736 5730 5725 5728 5726 5718 5725 5726 5722 5720 5720 5719 5716 5712 5707 5703 5701 5697 5696 5694 5692 5690 5686 5683 5680 5679 5678 5675 5673 5670 5669 5667 5665 5663 5661 5660 5659 5658 5657 5656 5657 5656 5657 5658 5657 5658 5659
5735 5738 5734 5730 5727 5723 5724 5718 5726 5724 5715 5715 5715 5713 5711 5708 5703 5699 5696 5693 5692 5689 5686 5682 5678 5675 5672 5671 5669 5666 5665 5663 5662 5660 5656 5655 5654 5652 5651 5650 5649 5648 5648 5647 5647 5648 5649 5651 5652
5733 5730 5727 5727 5727 5711 5721 5714 5715 5720 5715 5712 5710 5708 5705 5702 5699 5695 5691 5689 5686 5683 5680 5675 5670 5666 5664 5662 5661 5659 5656 5655 5653 5650 5649 5648 5647 5645 5643 5642 5641 5640 5640 5639 5639 5640 5642 5642 5643
5727 5717 5708 5707 5707 5712 5720 5711 5710 5714 5713 5708 5705 5703 5700 5697 5693 5688 5684 5681 5679 5676 5672 5668 5663 5659 5656 5655 5653 5650 5649 5647 5644 5643 5641 5640 5640 5638 5634 5634 5633 5632 5631 5631 5631 5632 5633 5634 5635
5722 5719 5705 5696 5701 5712 5711 5705 5708 5709 5707 5704 5702 5699 5694 5690 5686 5682 5678 5675 5671 5667 5663 5659 5655 5651 5648 5646 5644 5642 5641 5640 5638 5634 5633 5632 5631 5629 5626 5625 5624 5624 5623 5624 5624 5625 5626 5626 5627
5718 5719 5724 5710 5708 5702 5707 5705 5702 5701 5698 5696 5694 5691 5687 5683 5680 5676 5672 5667 5664 5659 5655 5651 5647 5642 5640 5638 5636 5634 5633 5631 5629 5626 5625 5624 5621 5620 5618 5617 5616 5616 5615 5615 5615 5617 5617 5618 5620
5724 5721 5712 5703 5687 5685 5696 5698 5696 5693 5691 5689 5686 5683 5679 5676 5672 5668 5663 5658 5655 5651 5646 5643 5639 5636 5633 5630 5628 5627 5624 5622 5620 5619 5616 5613 5611 5610 5609 5608 5608 5607 5607 5607 5607 5609 5609 5610 5611
5711 5709 5708 5706 5701 5684 5680 5690 5701 5696 5692 5686 5682 5678 5673 5670 5666 5661 5655 5651 5647 5643 5639 5635 5632 5629 5626 5623 5621 5618 5617 5614 5612 5609 5607 5604 5602 5601 5599 5599 5598 5598 5599 5599 5599 5601 5601 5602 5603
5712 5709 5704 5690 5689 5692 5686 5686 5694 5693 5690 5684 5678 5672 5668 5665 5661 5655 5649 5644 5640 5636 5633 5629 5625 5622 5619 5617 5614 5611 5608 5606 5603 5601 5599 5596 5594 5592 5591 5590 5590 5590 5590 5590 5591 5592 5593 5594 5595